Weather History for Randolph AFB, TX

Change the Weather History Date:

Friday, December 7, 2012

  Actual Average Record
Temperature  
Mean Temperature 64 °F -  
Max Temperature 77 °F 62 °F 80 °F (2007)
Min Temperature 51 °F 43 °F 26 °F (2005)
Degree Days  
Heating Degree Days 1    
Growing Degree Days 14 (Base 50)    
Moisture  
Dew Point 61 °F    
Average Humidity 94    
Maximum Humidity 100    
Minimum Humidity 59    
Precipitation  
Precipitation 0.00 in - - ()
Sea Level Pressure  
Sea Level Pressure 29.84 in    
Wind  
Wind Speed 2 mph (South)    
Max Wind Speed 14 mph    
Max Gust Speed 18 mph    
Visibility 6 miles    
Events Fog    
Averages and records for this station are not official NWS values.
T = Trace of Precipitation, MM = Missing Value Source: NWS Daily Summary

Daily Weather History Graph

Daily Weather History Graph

Search for Another Location

Airport:

Trip Planner

Search our weather history database for the weather conditions in past years. The results will help you decide how hot, cold, wet, or windy it might be!

Date:

Astronomy

Dec. 07, 2012 Rise Set
Actual Time 7:15 AM CST 5:34 PM CST
Civil Twilight 6:49 AM CST 6:00 PM CST
Nautical Twilight 6:19 AM CST 6:29 PM CST
Astronomical Twilight 5:50 AM CST 6:58 PM CST
Moon 1:00 AM CST (12/7) 1:10 PM CST (12/7)
Length of Visible Light 11h 11m
Length of Day
10h 19m
Last Quarter, 38% of the Moon is Illuminated
Dec 7
Last Quarter
Dec 13
New
Dec 19
First Quarter
Dec 28
Full
Jan 4
Last Quarter

Hourly Weather History & Observations

Time (CST) Temp. Dew Point Humidity Pressure Visibility Wind Dir Wind Speed Gust Speed Precip Events Conditions
12:00 AM 51.8 °F 51.8 °F 100% 29.88 in 10.0 mi Calm Calm - N/A   Mostly Cloudy
12:30 AM 55.4 °F 53.6 °F 94% 29.87 in 10.0 mi Calm Calm - N/A   Overcast
12:41 AM 55.4 °F 55.4 °F 100% 29.87 in 10.0 mi Calm Calm - N/A   Overcast
12:55 AM 55.6 °F 55.2 °F 99% 29.86 in 10.0 mi Calm Calm - N/A   Overcast
12:56 AM 55.4 °F 55.4 °F 100% 29.86 in 10.0 mi Calm Calm - N/A   Overcast
1:18 AM 57.2 °F 55.4 °F 94% 29.86 in 10.0 mi Calm Calm - N/A   Overcast
1:29 AM 57.2 °F 57.2 °F 100% 29.86 in 7.0 mi Calm Calm - N/A   Overcast
1:33 AM 57.2 °F 57.2 °F 100% 29.86 in 5.0 mi Calm Calm - N/A   Overcast
1:35 AM 57.2 °F 57.2 °F 100% 29.86 in 4.0 mi Calm Calm - N/A   Overcast
1:37 AM 57.2 °F 57.2 °F 100% 29.86 in 2.5 mi Calm Calm - N/A   Overcast
1:39 AM 57.2 °F 57.2 °F 100% 29.86 in 1.5 mi Calm Calm - N/A   Overcast
1:40 AM 57.2 °F 57.2 °F 100% 29.86 in 1.2 mi Calm Calm - N/A   Overcast
1:41 AM 57.2 °F 57.2 °F 100% 29.86 in 1.0 mi Calm Calm - N/A   Mist
1:42 AM 57.2 °F 57.2 °F 100% 29.86 in 0.8 mi Calm Calm - N/A   Mist
1:43 AM 57.2 °F 57.2 °F 100% 29.85 in 0.8 mi Calm Calm - N/A   Mist
1:45 AM 57.2 °F 57.2 °F 100% 29.85 in 0.5 mi Calm Calm - N/A Fog Fog
1:46 AM 57.2 °F 57.2 °F 100% 29.85 in 0.5 mi Calm Calm - N/A Fog Fog
1:47 AM 57.2 °F 57.2 °F 100% 29.85 in 0.5 mi Calm Calm - N/A Fog Fog
1:48 AM 57.2 °F 57.2 °F 100% 29.86 in 0.5 mi Calm Calm - N/A Fog Fog
1:55 AM 56.8 °F 56.8 °F 100% 29.86 in 0.5 mi Calm Calm - N/A Fog Fog
2:29 AM 57.2 °F 57.2 °F 100% 29.85 in 0.2 mi Calm Calm - N/A Fog Fog
2:44 AM 57.2 °F 57.2 °F 100% 29.84 in 0.5 mi Calm Calm - N/A Fog Fog
2:55 AM 57.7 °F 57.7 °F 100% 29.84 in 0.5 mi Calm Calm - N/A Fog Fog
3:08 AM 57.2 °F 57.2 °F 100% 29.84 in 0.5 mi Calm Calm - N/A Fog Fog
3:12 AM 57.2 °F 57.2 °F 100% 29.84 in 0.8 mi Calm Calm - N/A   Mist
3:24 AM 59.0 °F 59.0 °F 100% 29.85 in 0.8 mi Calm Calm - N/A   Mist
3:28 AM 59.0 °F 59.0 °F 100% 29.85 in 0.8 mi Calm Calm - N/A   Mist
3:29 AM 59.0 °F 59.0 °F 100% 29.85 in 1.0 mi Calm Calm - N/A   Mist
3:30 AM 59.0 °F 59.0 °F 100% 29.84 in 1.0 mi Calm Calm - N/A   Mist
3:31 AM 59.0 °F 59.0 °F 100% 29.84 in 1.2 mi Calm Calm - N/A   Overcast
3:33 AM 59.0 °F 59.0 °F 100% 29.84 in 1.5 mi Calm Calm - N/A   Overcast
3:34 AM 60.8 °F 60.8 °F 100% 29.84 in 1.8 mi Calm Calm - N/A   Overcast
3:35 AM 60.8 °F 60.8 °F 100% 29.84 in 2.0 mi Calm Calm - N/A   Overcast
3:37 AM 60.8 °F 60.8 °F 100% 29.84 in 3.0 mi Calm Calm - N/A   Overcast
3:41 AM 60.8 °F 60.8 °F 100% 29.84 in 4.0 mi Variable 3.5 mph - N/A   Overcast
3:43 AM 60.8 °F 60.8 °F 100% 29.84 in 5.0 mi South 3.5 mph - N/A   Overcast
3:45 AM 60.8 °F 60.8 °F 100% 29.84 in 5.0 mi Calm Calm - N/A   Overcast
3:50 AM 62.6 °F 62.6 °F 100% 29.84 in 7.0 mi SSW 5.8 mph - N/A   Overcast
3:51 AM 62.6 °F 62.6 °F 100% 29.84 in 8.0 mi SSW 5.8 mph - N/A   Overcast
3:55 AM 63.0 °F 62.8 °F 99% 29.84 in 9.0 mi SSW 5.8 mph - N/A   Overcast
4:07 AM 62.6 °F 62.6 °F 100% 29.84 in 10.0 mi SSW 6.9 mph - N/A   Overcast
4:19 AM 62.6 °F 62.6 °F 100% 29.84 in 10.0 mi SSW 5.8 mph - N/A   Overcast
4:25 AM 62.6 °F 62.6 °F 100% 29.84 in 10.0 mi SW 5.8 mph - N/A   Overcast
4:39 AM 62.6 °F 62.6 °F 100% 29.83 in 9.0 mi SW 4.6 mph - N/A   Mostly Cloudy
4:46 AM 62.6 °F 62.6 °F 100% 29.84 in 9.0 mi SW 3.5 mph - N/A   Mostly Cloudy
4:55 AM 63.0 °F 63.0 °F 100% 29.84 in 8.0 mi SW 3.5 mph - N/A   Mostly Cloudy
5:00 AM 62.6 °F 62.6 °F 100% 29.84 in 9.0 mi SW 3.5 mph - N/A   Mostly Cloudy
5:55 AM 63.0 °F 63.0 °F 100% 29.84 in 10.0 mi WSW 3.5 mph - N/A   Mostly Cloudy
5:56 AM 62.6 °F 62.6 °F 100% 29.84 in 10.0 mi Calm Calm - N/A   Mostly Cloudy
6:08 AM 62.6 °F 62.6 °F 100% 29.85 in 10.0 mi West 3.5 mph - N/A   Overcast
6:55 AM 63.3 °F 63.3 °F 100% 29.86 in 7.0 mi SW 3.5 mph - N/A   Overcast
7:55 AM 63.9 °F 63.9 °F 100% 29.87 in 7.0 mi Calm Calm - N/A   Overcast
8:44 AM 66.2 °F 64.4 °F 94% 29.88 in 7.0 mi South 3.5 mph - N/A   Mostly Cloudy
8:55 AM 65.7 °F 65.3 °F 99% 29.88 in 7.0 mi SSE 3.5 mph - N/A   Mostly Cloudy
9:55 AM 68.2 °F 66.6 °F 95% 29.88 in 10.0 mi South 8.1 mph - N/A   Overcast
10:05 AM 68.0 °F 66.2 °F 94% 29.88 in 10.0 mi South 11.5 mph - N/A   Scattered Clouds
10:07 AM 68.0 °F 66.2 °F 94% 29.88 in 10.0 mi South 10.4 mph - N/A   Mostly Cloudy
10:23 AM 69.8 °F 64.4 °F 83% 29.88 in 10.0 mi South 13.8 mph 18.4 mph N/A   Mostly Cloudy
10:55 AM 70.2 °F 64.4 °F 82% 29.88 in 10.0 mi South 10.4 mph - N/A   Mostly Cloudy
11:06 AM 71.6 °F 64.4 °F 78% 29.87 in 10.0 mi South 10.4 mph - N/A   Mostly Cloudy
11:24 AM 69.8 °F 66.2 °F 88% 29.87 in 10.0 mi South 11.5 mph - N/A   Mostly Cloudy
11:30 AM 68.0 °F 66.2 °F 94% 29.87 in 10.0 mi South 9.2 mph - N/A   Overcast
11:55 AM 69.4 °F 65.3 °F 87% 29.86 in 10.0 mi South 9.2 mph - N/A   Mostly Cloudy
12:55 PM 72.5 °F 64.6 °F 76% 29.82 in 10.0 mi SSW 8.1 mph - N/A   Mostly Cloudy
1:06 PM 73.4 °F 64.4 °F 73% 29.81 in 10.0 mi South 9.2 mph - N/A   Mostly Cloudy
1:11 PM 73.4 °F 64.4 °F 73% 29.81 in 10.0 mi South 5.8 mph - N/A   Mostly Cloudy
1:55 PM 74.3 °F 64.2 °F 71% 29.80 in 10.0 mi South 6.9 mph - N/A   Overcast
2:18 PM 75.2 °F 64.4 °F 69% 29.79 in 10.0 mi South 9.2 mph - N/A   Mostly Cloudy
2:55 PM 77.7 °F 63.1 °F 61% 29.78 in 10.0 mi SSE 6.9 mph - N/A   Mostly Cloudy
3:55 PM 77.0 °F 61.9 °F 59% 29.77 in 10.0 mi SE 9.2 mph - N/A   Mostly Cloudy
4:55 PM 74.7 °F 61.5 °F 63% 29.78 in 10.0 mi SSE 3.5 mph - N/A   Mostly Cloudy
5:55 PM 71.1 °F 61.0 °F 70% 29.78 in 10.0 mi Calm Calm - N/A   Mostly Cloudy
6:55 PM 67.8 °F 60.8 °F 78% 29.78 in 10.0 mi Calm Calm - N/A   Clear
7:55 PM 67.5 °F 60.4 °F 78% 29.80 in 10.0 mi Calm Calm - N/A   Clear
8:55 PM 64.9 °F 61.2 °F 88% 29.82 in 10.0 mi SSE 6.9 mph - N/A   Clear
9:55 PM 65.8 °F 62.8 °F 90% 29.83 in 10.0 mi South 4.6 mph - N/A   Clear
10:55 PM 61.9 °F 61.7 °F 99% 29.84 in 10.0 mi SSE 4.6 mph - N/A   Clear
11:55 PM 63.1 °F 63.1 °F 100% 29.84 in 10.0 mi Calm Calm - N/A   Clear